Time,TemperatureF,DewpointF,PressureIn,WindDirection,WindDirectionDegrees,WindSpeedMPH,WindSpeedGustMPH,Humidity,HourlyPrecipIn,Conditions,Clouds,dailyrainin,SolarRadiationWatts/m^2,SoftwareType,DateUTC
2013-01-18 00:03:00,40.6,27.8,30.07,NE,45,0.0,0.0,60,0.00,CLR,OVC,0.00,0.0,WeatherDisplay:10.37,2013-01-18 08:03:00,
2013-01-18 00:08:00,40.8,28.0,30.07,NNE,22,0.0,0.0,60,0.00,CLR,OVC,0.00,0.0,WeatherDisplay:10.37,2013-01-18 08:08:00,
2013-01-18 00:13:00,39.7,27.0,30.07,SE,135,0.0,0.0,60,0.00,CLR,OVC,0.00,0.0,WeatherDisplay:10.37,2013-01-18 08:13:00,
2013-01-18 00:18:00,39.7,27.4,30.07,WSW,248,0.0,0.0,61,0.00,CLR,OVC,0.00,0.0,WeatherDisplay:10.37,2013-01-18 08:18:00,
2013-01-18 00:23:00,40.1,27.7,30.07,NW,315,0.0,0.0,61,0.00,CLR,OVC,0.00,0.0,WeatherDisplay:10.37,2013-01-18 08:23:00,
2013-01-18 00:28:00,39.6,27.2,30.07,WSW,248,0.0,0.0,61,0.00,CLR,OVC,0.00,0.0,WeatherDisplay:10.37,2013-01-18 08:28:00,
2013-01-18 00:33:00,39.6,27.6,30.07,SE,135,0.0,0.0,62,0.00,CLR,OVC,0.00,0.0,WeatherDisplay:10.37,2013-01-18 08:33:00,
2013-01-18 00:38:00,39.9,27.9,30.07,SE,135,0.0,0.0,62,0.00,CLR,OVC,0.00,0.0,WeatherDisplay:10.37,2013-01-18 08:38:00,
2013-01-18 00:43:00,39.7,27.4,30.07,NE,45,0.0,0.0,61,0.00,CLR,OVC,0.00,0.0,WeatherDisplay:10.37,2013-01-18 08:43:00,
2013-01-18 00:48:00,39.6,27.2,30.07,West,270,0.0,0.0,61,0.00,CLR,OVC,0.00,0.0,WeatherDisplay:10.37,2013-01-18 08:48:00,
2013-01-18 00:53:00,39.4,27.0,30.08,ENE,68,0.0,0.0,61,0.00,CLR,OVC,0.00,0.0,WeatherDisplay:10.37,2013-01-18 08:53:00,
2013-01-18 00:58:00,39.2,26.9,30.08,ENE,68,0.0,0.0,61,0.00,CLR,OVC,0.00,0.0,WeatherDisplay:10.37,2013-01-18 08:58:00,
2013-01-18 01:03:00,38.8,26.5,30.08,SSE,158,0.0,0.0,61,0.00,CLR,OVC,0.00,0.0,WeatherDisplay:10.37,2013-01-18 09:03:00,
2013-01-18 01:08:00,39.0,27.1,30.08,ESE,112,0.0,0.0,62,0.00,CLR,OVC,0.00,0.0,WeatherDisplay:10.37,2013-01-18 09:08:00,
2013-01-18 01:13:00,39.0,27.1,30.08,East,90,0.0,0.0,62,0.00,CLR,OVC,0.00,0.0,WeatherDisplay:10.37,2013-01-18 09:13:00,
2013-01-18 01:18:00,39.0,27.1,30.08,NNE,22,0.0,0.0,62,0.00,CLR,OVC,0.00,0.0,WeatherDisplay:10.37,2013-01-18 09:18:00,
2013-01-18 01:23:00,38.8,26.9,30.08,NW,315,0.0,0.0,62,0.00,CLR,OVC,0.00,0.0,WeatherDisplay:10.37,2013-01-18 09:23:00,
2013-01-18 01:28:00,38.8,26.5,30.08,West,270,0.0,0.0,61,0.00,CLR,OVC,0.00,0.0,WeatherDisplay:10.37,2013-01-18 09:28:00,
2013-01-18 01:33:00,38.5,26.2,30.08,SSE,158,0.0,0.0,61,0.00,CLR,OVC,0.00,0.0,WeatherDisplay:10.37,2013-01-18 09:33:00,
2013-01-18 01:38:00,38.3,26.4,30.08,SE,135,0.0,0.0,62,0.00,CLR,OVC,0.00,0.0,WeatherDisplay:10.37,2013-01-18 09:38:00,
2013-01-18 01:43:00,38.3,26.8,30.08,South,180,0.0,0.0,63,0.00,CLR,OVC,0.00,0.0,WeatherDisplay:10.37,2013-01-18 09:43:00,
2013-01-18 01:48:00,38.7,26.8,30.08,ESE,112,0.0,0.0,62,0.00,CLR,OVC,0.00,0.0,WeatherDisplay:10.37,2013-01-18 09:48:00,
2013-01-18 01:53:00,38.5,26.2,30.08,West,270,0.0,0.0,61,0.00,CLR,OVC,0.00,0.0,WeatherDisplay:10.37,2013-01-18 09:53:00,
2013-01-18 01:58:00,37.9,26.1,30.08,SSE,158,0.0,0.0,62,0.00,CLR,OVC,0.00,0.0,WeatherDisplay:10.37,2013-01-18 09:58:00,
2013-01-18 02:03:00,38.1,26.6,30.08,ENE,68,0.0,0.0,63,0.00,CLR,OVC,0.00,0.0,WeatherDisplay:10.37,2013-01-18 10:03:00,
2013-01-18 02:08:00,38.1,26.6,30.08,NW,315,0.0,0.0,63,0.00,CLR,OVC,0.00,0.0,WeatherDisplay:10.37,2013-01-18 10:08:00,
2013-01-18 02:13:00,38.3,26.4,30.08,NE,45,0.0,0.0,62,0.00,CLR,OVC,0.00,0.0,WeatherDisplay:10.37,2013-01-18 10:13:00,
2013-01-18 02:18:00,38.1,26.2,30.08,ESE,112,0.0,0.0,62,0.00,CLR,OVC,0.00,0.0,WeatherDisplay:10.37,2013-01-18 10:18:00,
2013-01-18 02:23:00,37.9,25.7,30.08,West,270,0.0,0.0,61,0.00,CLR,OVC,0.00,0.0,WeatherDisplay:10.37,2013-01-18 10:23:00,
2013-01-18 02:28:00,37.8,25.9,30.08,South,180,0.0,0.0,62,0.00,CLR,OVC,0.00,0.0,WeatherDisplay:10.37,2013-01-18 10:28:00,
2013-01-18 02:33:00,37.8,25.9,30.08,SE,135,0.0,0.0,62,0.00,CLR,OVC,0.00,0.0,WeatherDisplay:10.37,2013-01-18 10:33:00,
2013-01-18 02:38:00,37.8,26.3,30.08,West,270,0.0,0.0,63,0.00,CLR,OVC,0.00,0.0,WeatherDisplay:10.37,2013-01-18 10:38:00,
2013-01-18 02:43:00,37.6,25.7,30.08,WSW,248,0.0,0.0,62,0.00,CLR,OVC,0.00,0.0,WeatherDisplay:10.37,2013-01-18 10:43:00,
2013-01-18 02:48:00,37.9,26.1,30.08,WNW,292,0.0,0.0,62,0.00,CLR,OVC,0.00,0.0,WeatherDisplay:10.37,2013-01-18 10:48:00,
2013-01-18 02:53:00,37.8,25.9,30.08,WNW,292,0.0,0.0,62,0.00,CLR,OVC,0.00,0.0,WeatherDisplay:10.37,2013-01-18 10:53:00,
2013-01-18 02:58:00,37.8,25.9,30.08,WNW,292,0.0,0.0,62,0.00,CLR,OVC,0.00,0.0,WeatherDisplay:10.37,2013-01-18 10:58:00,
2013-01-18 03:03:00,37.9,26.1,30.08,NW,315,0.0,0.0,62,0.00,CLR,OVC,0.00,0.0,WeatherDisplay:10.37,2013-01-18 11:03:00,
2013-01-18 03:08:00,37.8,25.5,30.08,SW,225,0.0,0.0,61,0.00,CLR,OVC,0.00,0.0,WeatherDisplay:10.37,2013-01-18 11:08:00,
2013-01-18 03:13:00,37.6,25.3,30.08,SE,135,0.0,0.0,61,0.00,CLR,OVC,0.00,0.0,WeatherDisplay:10.37,2013-01-18 11:13:00,
2013-01-18 03:18:00,37.8,25.5,30.08,NNW,338,0.0,0.0,61,0.00,CLR,OVC,0.00,0.0,WeatherDisplay:10.37,2013-01-18 11:18:00,
2013-01-18 03:23:00,37.6,24.9,30.08,West,270,0.0,0.0,60,0.00,CLR,OVC,0.00,0.0,WeatherDisplay:10.37,2013-01-18 11:23:00,
2013-01-18 03:28:00,37.4,24.8,30.08,West,270,0.0,0.0,60,0.00,CLR,OVC,0.00,0.0,WeatherDisplay:10.37,2013-01-18 11:28:00,
2013-01-18 03:33:00,37.2,25.8,30.08,WSW,248,0.0,0.0,63,0.00,CLR,OVC,0.00,0.0,WeatherDisplay:10.37,2013-01-18 11:33:00,
2013-01-18 03:38:00,37.0,25.6,30.08,West,270,0.0,0.0,63,0.00,CLR,OVC,0.00,0.0,WeatherDisplay:10.37,2013-01-18 11:38:00,
2013-01-18 03:43:00,36.9,25.8,30.08,South,180,0.0,0.0,64,0.00,CLR,OVC,0.00,0.0,WeatherDisplay:10.37,2013-01-18 11:43:00,
2013-01-18 03:48:00,37.0,26.0,30.08,ESE,112,0.0,0.0,64,0.00,CLR,OVC,0.00,0.0,WeatherDisplay:10.37,2013-01-18 11:48:00,
2013-01-18 03:53:00,37.2,25.8,30.08,NE,45,0.0,0.0,63,0.00,CLR,OVC,0.00,0.0,WeatherDisplay:10.37,2013-01-18 11:53:00,
2013-01-18 03:58:00,37.4,25.6,30.08,ESE,112,0.0,0.0,62,0.00,CLR,OVC,0.00,0.0,WeatherDisplay:10.37,2013-01-18 11:58:00,
2013-01-18 04:03:00,37.0,25.6,30.08,East,90,0.0,0.0,63,0.00,CLR,OVC,0.00,0.0,WeatherDisplay:10.37,2013-01-18 12:03:00,
2013-01-18 04:08:00,36.7,25.6,30.08,SE,135,0.0,0.0,64,0.00,CLR,OVC,0.00,0.0,WeatherDisplay:10.37,2013-01-18 12:08:00,
2013-01-18 04:13:00,36.7,25.6,30.08,WNW,292,0.0,0.0,64,0.00,CLR,OVC,0.00,0.0,WeatherDisplay:10.37,2013-01-18 12:13:00,
2013-01-18 04:18:00,36.7,25.6,30.08,NE,45,0.0,0.0,64,0.00,CLR,OVC,0.00,0.0,WeatherDisplay:10.37,2013-01-18 12:18:00,
2013-01-18 04:23:00,36.7,25.3,30.08,NNW,338,0.0,0.0,63,0.00,CLR,OVC,0.00,0.0,WeatherDisplay:10.37,2013-01-18 12:23:00,
2013-01-18 04:28:00,36.7,25.3,30.08,NNW,338,0.0,0.0,63,0.00,CLR,OVC,0.00,0.0,WeatherDisplay:10.37,2013-01-18 12:28:00,
2013-01-18 04:33:00,36.7,25.3,30.08,NNE,22,0.0,0.0,63,0.00,CLR,OVC,0.00,0.0,WeatherDisplay:10.37,2013-01-18 12:33:00,
2013-01-18 04:38:00,36.5,25.5,30.08,ENE,68,0.0,0.0,64,0.00,CLR,OVC,0.00,0.0,WeatherDisplay:10.37,2013-01-18 12:38:00,
2013-01-18 04:43:00,36.5,25.1,30.08,ENE,68,0.0,0.0,63,0.00,CLR,OVC,0.00,0.0,WeatherDisplay:10.37,2013-01-18 12:43:00,
2013-01-18 04:48:00,36.5,25.1,30.08,ENE,68,0.0,0.0,63,0.00,CLR,OVC,0.00,0.0,WeatherDisplay:10.37,2013-01-18 12:48:00,
2013-01-18 04:53:00,36.5,25.1,30.08,NW,315,0.0,0.0,63,0.00,CLR,OVC,0.00,0.0,WeatherDisplay:10.37,2013-01-18 12:53:00,
2013-01-18 04:58:00,36.1,24.7,30.08,NW,315,0.0,0.0,63,0.00,CLR,OVC,0.00,0.0,WeatherDisplay:10.37,2013-01-18 12:58:00,
2013-01-18 05:03:00,36.1,25.1,30.08,SSW,202,0.0,0.0,64,0.00,CLR,OVC,0.00,0.0,WeatherDisplay:10.37,2013-01-18 13:03:00,
2013-01-18 05:08:00,36.1,25.1,30.08,SSW,202,0.0,0.0,64,0.00,CLR,OVC,0.00,0.0,WeatherDisplay:10.37,2013-01-18 13:08:00,
2013-01-18 05:13:00,36.1,25.1,30.08,SSW,202,0.0,0.0,64,0.00,CLR,OVC,0.00,0.0,WeatherDisplay:10.37,2013-01-18 13:13:00,
2013-01-18 05:18:00,36.1,25.1,30.08,SE,135,0.0,0.0,64,0.00,CLR,OVC,0.00,0.0,WeatherDisplay:10.37,2013-01-18 13:18:00,
2013-01-18 05:23:00,36.1,25.1,30.08,SSE,158,0.0,0.0,64,0.00,CLR,OVC,0.00,0.0,WeatherDisplay:10.37,2013-01-18 13:23:00,
2013-01-18 05:28:00,36.0,25.3,30.08,South,180,0.0,0.0,65,0.00,CLR,OVC,0.00,0.0,WeatherDisplay:10.37,2013-01-18 13:28:00,
2013-01-18 05:33:00,36.0,25.3,30.07,SSW,202,0.0,0.0,65,0.00,CLR,OVC,0.00,0.0,WeatherDisplay:10.37,2013-01-18 13:33:00,
2013-01-18 05:38:00,35.6,25.0,30.07,SE,135,0.0,0.0,65,0.00,CLR,OVC,0.00,0.0,WeatherDisplay:10.37,2013-01-18 13:38:00,
2013-01-18 05:43:00,35.4,25.2,30.07,SSE,158,0.0,0.0,66,0.00,CLR,OVC,0.00,0.0,WeatherDisplay:10.37,2013-01-18 13:43:00,
2013-01-18 05:48:00,35.6,25.4,30.07,WSW,248,0.0,0.0,66,0.00,CLR,OVC,0.00,0.0,WeatherDisplay:10.37,2013-01-18 13:48:00,
2013-01-18 05:53:00,36.0,25.3,30.07,SSE,158,0.0,0.0,65,0.00,CLR,OVC,0.00,0.0,WeatherDisplay:10.37,2013-01-18 13:53:00,
2013-01-18 05:58:00,35.8,25.2,30.07,NW,315,0.0,0.0,65,0.00,CLR,OVC,0.00,0.0,WeatherDisplay:10.37,2013-01-18 13:58:00,
2013-01-18 06:03:00,35.6,25.0,30.07,WSW,248,0.0,0.0,65,0.00,CLR,OVC,0.00,0.0,WeatherDisplay:10.37,2013-01-18 14:03:00,
2013-01-18 06:08:00,35.6,25.0,30.07,SE,135,0.0,0.0,65,0.00,CLR,OVC,0.00,0.0,WeatherDisplay:10.37,2013-01-18 14:08:00,
2013-01-18 06:13:00,35.6,25.4,30.07,SE,135,0.0,0.0,66,0.00,CLR,OVC,0.00,0.0,WeatherDisplay:10.37,2013-01-18 14:13:00,
2013-01-18 06:18:00,35.6,25.4,30.07,ESE,112,0.0,0.0,66,0.00,CLR,OVC,0.00,0.0,WeatherDisplay:10.37,2013-01-18 14:18:00,
2013-01-18 06:23:00,36.1,25.5,30.07,NE,45,0.0,0.0,65,0.00,CLR,OVC,0.00,0.0,WeatherDisplay:10.37,2013-01-18 14:23:00,
2013-01-18 06:28:00,36.0,25.3,30.07,NNE,22,0.0,0.0,65,0.00,CLR,OVC,0.00,0.0,WeatherDisplay:10.37,2013-01-18 14:28:00,
2013-01-18 06:33:00,35.8,24.8,30.07,WNW,292,0.0,0.0,64,0.00,CLR,OVC,0.00,0.0,WeatherDisplay:10.37,2013-01-18 14:33:00,
2013-01-18 06:38:00,35.8,24.8,30.07,West,270,0.0,0.0,64,0.00,CLR,OVC,0.00,0.0,WeatherDisplay:10.37,2013-01-18 14:38:00,
2013-01-18 06:43:00,35.1,24.5,30.07,SE,135,0.0,0.0,65,0.00,CLR,OVC,0.00,0.0,WeatherDisplay:10.37,2013-01-18 14:43:00,
2013-01-18 06:48:00,34.9,24.7,30.07,ESE,112,0.0,0.0,66,0.00,CLR,OVC,0.00,0.0,WeatherDisplay:10.37,2013-01-18 14:48:00,
2013-01-18 06:53:00,35.2,25.0,30.07,NNE,22,0.0,0.0,66,0.00,CLR,OVC,0.00,0.0,WeatherDisplay:10.37,2013-01-18 14:53:00,
2013-01-18 06:58:00,35.4,25.2,30.07,ESE,112,0.0,0.0,66,0.00,CLR,OVC,0.00,0.0,WeatherDisplay:10.37,2013-01-18 14:58:00,
2013-01-18 07:03:00,35.2,25.0,30.07,ESE,112,0.0,0.0,66,0.00,CLR,OVC,0.00,0.0,WeatherDisplay:10.37,2013-01-18 15:03:00,
2013-01-18 07:08:00,35.2,25.0,30.07,SE,135,0.0,0.0,66,0.00,OVC,,0.00,0.0,WeatherDisplay:10.37,2013-01-18 15:08:00,
2013-01-18 07:13:00,34.7,24.5,30.07,ESE,112,0.0,0.0,66,0.00,OVC,,0.00,0.0,WeatherDisplay:10.37,2013-01-18 15:13:00,
2013-01-18 07:18:00,35.2,25.4,30.07,ESE,112,0.0,0.0,67,0.00,OVC,,0.00,0.0,WeatherDisplay:10.37,2013-01-18 15:18:00,
2013-01-18 07:23:00,35.6,25.4,30.07,ESE,112,0.0,0.0,66,0.00,OVC,,0.00,0.0,WeatherDisplay:10.37,2013-01-18 15:23:00,
2013-01-18 07:28:00,35.1,24.8,30.07,South,180,0.0,0.0,66,0.00,OVC,,0.00,0.0,WeatherDisplay:10.37,2013-01-18 15:28:00,
2013-01-18 07:33:00,34.9,24.7,30.07,SSE,158,0.0,0.0,66,0.00,OVC,,0.00,0.0,WeatherDisplay:10.37,2013-01-18 15:33:00,
2013-01-18 07:38:00,35.1,24.8,30.07,ENE,68,0.0,0.0,66,0.00,OVC,,0.00,0.0,WeatherDisplay:10.37,2013-01-18 15:38:00,
2013-01-18 07:43:00,35.4,25.5,30.07,NNE,22,0.0,0.0,67,0.00,OVC,,0.00,0.0,WeatherDisplay:10.37,2013-01-18 15:43:00,
2013-01-18 07:48:00,35.4,25.2,30.07,ENE,68,1.2,1.2,66,0.00,OVC,,0.00,0.0,WeatherDisplay:10.37,2013-01-18 15:48:00,
2013-01-18 07:53:00,35.4,25.5,30.07,East,90,0.0,0.1,67,0.00,OVC,,0.00,0.0,WeatherDisplay:10.37,2013-01-18 15:53:00,
2013-01-18 07:58:00,35.2,25.4,30.07,SE,135,0.0,0.0,67,0.00,OVC,,0.00,0.0,WeatherDisplay:10.37,2013-01-18 15:58:00,
2013-01-18 08:03:00,35.6,25.7,30.07,ESE,112,0.0,0.0,67,0.00,OVC,,0.00,0.0,WeatherDisplay:10.37,2013-01-18 16:03:00,
2013-01-18 08:08:00,35.6,25.7,30.07,ESE,112,0.0,0.0,67,0.00,OVC,,0.00,0.0,WeatherDisplay:10.37,2013-01-18 16:08:00,
2013-01-18 08:13:00,35.6,26.1,30.07,ESE,112,0.0,0.0,68,0.00,OVC,,0.00,0.0,WeatherDisplay:10.37,2013-01-18 16:13:00,
2013-01-18 08:18:00,35.6,26.1,30.07,ESE,112,0.0,0.0,68,0.00,OVC,,0.00,0.0,WeatherDisplay:10.37,2013-01-18 16:18:00,
2013-01-18 08:24:00,36.0,26.8,30.07,ESE,112,0.0,0.0,69,0.00,OVC,,0.00,0.0,WeatherDisplay:10.37,2013-01-18 16:24:00,
2013-01-18 08:29:00,36.1,27.3,30.07,ESE,112,0.0,0.0,70,0.00,OVC,,0.00,0.0,WeatherDisplay:10.37,2013-01-18 16:29:00,
2013-01-18 08:34:00,36.5,27.6,30.07,ESE,112,0.0,0.0,70,0.00,OVC,,0.00,0.0,WeatherDisplay:10.37,2013-01-18 16:34:00,
2013-01-18 08:39:00,37.2,28.7,30.07,NNE,22,0.0,0.0,71,0.00,OVC,,0.00,0.0,WeatherDisplay:10.37,2013-01-18 16:39:00,
2013-01-18 08:44:00,37.4,28.5,30.07,NE,45,1.2,1.2,70,0.00,OVC,,0.00,0.0,WeatherDisplay:10.37,2013-01-18 16:44:00,
2013-01-18 08:49:00,37.4,28.5,30.07,ENE,68,1.2,1.2,70,0.00,OVC,,0.00,0.0,WeatherDisplay:10.37,2013-01-18 16:49:00,
2013-01-18 08:54:00,38.3,30.4,30.07,NNE,22,2.3,2.3,73,0.00,OVC,,0.00,0.0,WeatherDisplay:10.37,2013-01-18 16:54:00,
2013-01-18 08:59:00,38.7,30.7,30.07,NNE,22,2.3,2.3,73,0.00,OVC,,0.00,0.0,WeatherDisplay:10.37,2013-01-18 16:59:00,
2013-01-18 09:04:00,39.2,31.6,30.07,ENE,68,2.3,2.3,74,0.00,OVC,,0.00,0.0,WeatherDisplay:10.37,2013-01-18 17:04:00,
2013-01-18 09:09:00,39.4,32.1,30.07,NE,45,1.2,1.2,75,0.00,FEW,OVC,0.00,0.0,WeatherDisplay:10.37,2013-01-18 17:09:00,
2013-01-18 09:14:00,39.9,32.6,30.07,North,0,1.6,1.6,75,0.00,FEW,OVC,0.00,0.0,WeatherDisplay:10.37,2013-01-18 17:14:00,
2013-01-18 09:19:00,40.1,32.8,30.07,NNE,22,1.2,1.2,75,0.00,FEW,OVC,0.00,0.0,WeatherDisplay:10.37,2013-01-18 17:19:00,
2013-01-18 09:24:00,40.5,33.5,30.07,ENE,68,0.0,0.1,76,0.00,FEW,OVC,0.00,0.0,WeatherDisplay:10.37,2013-01-18 17:24:00,
2013-01-18 09:29:00,41.2,34.2,30.07,ESE,112,1.2,1.2,76,0.00,FEW,OVC,0.00,0.0,WeatherDisplay:10.37,2013-01-18 17:29:00,
2013-01-18 09:34:00,41.4,34.4,30.07,NNE,22,0.0,0.2,76,0.00,FEW,OVC,0.00,0.0,WeatherDisplay:10.37,2013-01-18 17:34:00,
2013-01-18 09:39:00,41.5,34.5,30.07,West,270,1.2,1.2,76,0.00,FEW,OVC,0.00,0.0,WeatherDisplay:10.37,2013-01-18 17:39:00,
2013-01-18 09:44:00,41.9,34.9,30.07,East,90,1.2,1.2,76,0.00,FEW,OVC,0.00,0.0,WeatherDisplay:10.37,2013-01-18 17:44:00,
2013-01-18 09:49:00,42.3,35.2,30.07,NNW,338,0.0,0.2,76,0.00,FEW,OVC,0.00,0.0,WeatherDisplay:10.37,2013-01-18 17:49:00,
2013-01-18 09:54:00,42.8,35.1,30.07,WSW,248,2.3,2.3,74,0.00,FEW,OVC,0.00,0.0,WeatherDisplay:10.37,2013-01-18 17:54:00,
2013-01-18 09:59:00,43.0,35.3,30.07,SE,135,1.2,1.2,74,0.00,FEW,OVC,0.00,0.0,WeatherDisplay:10.37,2013-01-18 17:59:00,
2013-01-18 10:04:00,43.3,35.6,30.07,NNW,338,2.3,2.3,74,0.00,FEW,OVC,0.00,0.0,WeatherDisplay:10.37,2013-01-18 18:04:00,
2013-01-18 10:09:00,43.5,35.4,30.07,SW,225,2.3,2.3,73,0.00,CLR,OVC,0.00,0.0,WeatherDisplay:10.37,2013-01-18 18:09:00,
2013-01-18 10:14:00,43.9,35.8,30.07,WSW,248,1.2,1.2,73,0.00,CLR,OVC,0.00,0.0,WeatherDisplay:10.37,2013-01-18 18:14:00,
2013-01-18 10:19:00,44.2,35.8,30.07,ESE,112,0.0,0.6,72,0.00,CLR,OVC,0.00,0.0,WeatherDisplay:10.37,2013-01-18 18:19:00,
2013-01-18 10:24:00,44.6,35.8,30.07,SW,225,1.2,0.0,71,0.00,CLR,OVC,0.00,0.0,WeatherDisplay:10.37,2013-01-18 18:24:00,
2013-01-18 10:29:00,45.0,36.1,30.07,ESE,112,1.4,1.4,71,0.00,CLR,OVC,0.00,0.0,WeatherDisplay:10.37,2013-01-18 18:29:00,
2013-01-18 10:34:00,45.3,36.1,30.07,NNW,338,1.2,1.2,70,0.00,CLR,OVC,0.00,0.0,WeatherDisplay:10.37,2013-01-18 18:34:00,
2013-01-18 10:39:00,45.5,36.3,30.07,NNW,338,0.0,0.3,70,0.00,CLR,OVC,0.00,0.0,WeatherDisplay:10.37,2013-01-18 18:39:00,
2013-01-18 10:44:00,46.0,36.4,30.07,West,270,2.3,2.3,69,0.00,CLR,OVC,0.00,0.0,WeatherDisplay:10.37,2013-01-18 18:44:00,
2013-01-18 10:49:00,46.6,37.0,30.07,WNW,292,3.7,3.7,69,0.00,CLR,OVC,0.00,0.0,WeatherDisplay:10.37,2013-01-18 18:49:00,
2013-01-18 10:54:00,47.5,37.4,30.07,SSW,202,2.5,2.5,68,0.00,CLR,OVC,0.00,0.0,WeatherDisplay:10.37,2013-01-18 18:54:00,
2013-01-18 10:59:00,48.0,37.2,30.07,NW,315,3.5,3.5,66,0.00,CLR,OVC,0.00,0.0,WeatherDisplay:10.37,2013-01-18 18:59:00,
2013-01-18 11:04:00,48.2,36.6,30.07,NW,315,3.5,3.5,64,0.00,CLR,OVC,0.00,0.0,WeatherDisplay:10.37,2013-01-18 19:04:00,
2013-01-18 11:09:00,48.4,36.4,30.07,NW,315,2.3,2.3,63,0.00,CLR,OVC,0.00,0.0,WeatherDisplay:10.37,2013-01-18 19:09:00,
2013-01-18 11:14:00,48.6,36.1,30.07,NNW,338,2.3,2.3,62,0.00,CLR,OVC,0.00,0.0,WeatherDisplay:10.37,2013-01-18 19:14:00,
2013-01-18 11:19:00,48.9,36.1,30.07,NW,315,2.5,2.5,61,0.00,CLR,OVC,0.00,0.0,WeatherDisplay:10.37,2013-01-18 19:19:00,
2013-01-18 11:24:00,49.8,36.5,30.07,NNE,22,3.5,3.5,60,0.00,CLR,OVC,0.00,0.0,WeatherDisplay:10.37,2013-01-18 19:24:00,
2013-01-18 11:29:00,50.2,36.4,30.07,NW,315,4.6,4.6,59,0.00,CLR,OVC,0.00,0.0,WeatherDisplay:10.37,2013-01-18 19:29:00,
2013-01-18 11:34:00,50.5,36.3,30.07,North,0,3.5,3.5,58,0.00,CLR,OVC,0.00,0.0,WeatherDisplay:10.37,2013-01-18 19:34:00,
2013-01-18 11:39:00,50.5,35.9,30.07,NW,315,4.6,4.6,57,0.00,CLR,OVC,0.00,0.0,WeatherDisplay:10.37,2013-01-18 19:39:00,
2013-01-18 11:44:00,51.1,36.4,30.07,WNW,292,5.8,5.8,57,0.00,CLR,OVC,0.00,0.0,WeatherDisplay:10.37,2013-01-18 19:44:00,
2013-01-18 11:49:00,52.0,36.8,30.07,North,0,4.6,4.6,56,0.00,CLR,OVC,0.00,0.0,WeatherDisplay:10.37,2013-01-18 19:49:00,
2013-01-18 11:54:00,52.3,36.2,30.07,West,270,5.8,5.8,54,0.00,CLR,OVC,0.00,0.0,WeatherDisplay:10.37,2013-01-18 19:54:00,
2013-01-18 11:59:00,52.3,35.7,30.07,WNW,292,4.6,4.6,53,0.00,CLR,OVC,0.00,0.0,WeatherDisplay:10.37,2013-01-18 19:59:00,
2013-01-18 12:04:00,52.7,35.6,30.07,West,270,4.6,4.6,52,0.00,CLR,OVC,0.00,0.0,WeatherDisplay:10.37,2013-01-18 20:04:00,
2013-01-18 12:09:00,52.7,35.6,30.08,West,270,2.3,3.1,52,0.00,CLR,OVC,0.00,0.0,WeatherDisplay:10.37,2013-01-18 20:09:00,
2013-01-18 12:14:00,52.7,34.6,30.08,NNE,22,2.3,2.5,50,0.00,CLR,OVC,0.00,0.0,WeatherDisplay:10.37,2013-01-18 20:14:00,
2013-01-18 12:19:00,53.1,33.9,30.08,NW,315,2.3,2.5,48,0.00,CLR,OVC,0.00,0.0,WeatherDisplay:10.37,2013-01-18 20:19:00,
2013-01-18 12:24:00,53.1,33.3,30.08,NNE,22,3.5,3.5,47,0.00,CLR,OVC,0.00,0.0,WeatherDisplay:10.37,2013-01-18 20:24:00,
2013-01-18 12:29:00,53.4,33.7,30.08,NE,45,2.3,2.4,47,0.00,CLR,OVC,0.00,0.0,WeatherDisplay:10.37,2013-01-18 20:29:00,
2013-01-18 12:34:00,53.2,33.0,30.06,North,0,4.6,4.6,46,0.00,CLR,OVC,0.00,0.0,WeatherDisplay:10.37,2013-01-18 20:34:00,
2013-01-18 12:39:00,53.4,33.1,30.06,NW,315,3.5,3.5,46,0.00,CLR,OVC,0.00,0.0,WeatherDisplay:10.37,2013-01-18 20:39:00,
2013-01-18 12:44:00,54.3,34.0,30.06,NW,315,2.3,2.4,46,0.00,CLR,OVC,0.00,0.0,WeatherDisplay:10.37,2013-01-18 20:44:00,
2013-01-18 12:49:00,54.7,34.3,30.06,ENE,68,3.5,3.5,46,0.00,CLR,OVC,0.00,0.0,WeatherDisplay:10.37,2013-01-18 20:49:00,
2013-01-18 12:54:00,54.5,33.6,30.06,NW,315,3.5,3.5,45,0.00,CLR,OVC,0.00,0.0,WeatherDisplay:10.37,2013-01-18 20:54:00,
2013-01-18 12:59:00,55.4,33.8,30.06,North,0,4.6,4.6,44,0.00,CLR,OVC,0.00,0.0,WeatherDisplay:10.37,2013-01-18 20:59:00,
2013-01-18 13:04:00,55.8,33.6,30.06,West,270,3.5,3.5,43,0.00,CLR,OVC,0.00,0.0,WeatherDisplay:10.37,2013-01-18 21:04:00,
2013-01-18 13:09:00,55.9,33.2,30.06,NW,315,4.6,4.6,42,0.00,CLR,OVC,0.00,0.0,WeatherDisplay:10.37,2013-01-18 21:09:00,
2013-01-18 13:14:00,56.7,32.6,30.05,NW,315,3.5,3.5,40,0.00,CLR,OVC,0.00,0.0,WeatherDisplay:10.37,2013-01-18 21:14:00,
2013-01-18 13:19:00,56.7,32.0,30.05,NW,315,5.8,5.8,39,0.00,CLR,OVC,0.00,0.0,WeatherDisplay:10.37,2013-01-18 21:19:00,
2013-01-18 13:24:00,56.5,31.2,30.05,NNW,338,4.6,4.6,38,0.00,CLR,OVC,0.00,0.0,WeatherDisplay:10.37,2013-01-18 21:24:00,
2013-01-18 13:29:00,56.7,30.7,30.05,NNE,22,5.8,5.8,37,0.00,CLR,OVC,0.00,0.0,WeatherDisplay:10.37,2013-01-18 21:29:00,
2013-01-18 13:34:00,57.0,28.9,30.04,NW,315,4.6,4.6,34,0.00,CLR,OVC,0.00,0.0,WeatherDisplay:10.37,2013-01-18 21:34:00,
2013-01-18 13:39:00,56.8,28.7,30.04,NW,315,4.6,4.6,34,0.00,CLR,OVC,0.00,0.0,WeatherDisplay:10.37,2013-01-18 21:39:00,
2013-01-18 13:44:00,56.7,27.1,30.04,NNE,22,5.8,5.8,32,0.00,CLR,OVC,0.00,0.0,WeatherDisplay:10.37,2013-01-18 21:44:00,
2013-01-18 13:49:00,56.8,28.0,30.04,NW,315,4.6,4.6,33,0.00,CLR,OVC,0.00,0.0,WeatherDisplay:10.37,2013-01-18 21:49:00,
2013-01-18 13:54:00,56.7,27.1,30.03,WNW,292,4.6,4.6,32,0.00,CLR,OVC,0.00,0.0,WeatherDisplay:10.37,2013-01-18 21:54:00,
2013-01-18 13:59:00,57.0,28.2,30.03,West,270,4.6,4.6,33,0.00,CLR,OVC,0.00,0.0,WeatherDisplay:10.37,2013-01-18 21:59:00,
2013-01-18 14:04:00,57.0,26.6,30.03,NW,315,2.3,2.3,31,0.00,CLR,OVC,0.00,0.0,WeatherDisplay:10.37,2013-01-18 22:04:00,
2013-01-18 14:09:00,57.9,26.6,30.03,WNW,292,5.8,5.8,30,0.00,CLR,OVC,0.00,0.0,WeatherDisplay:10.37,2013-01-18 22:09:00,
2013-01-18 14:14:00,58.3,26.9,30.03,WNW,292,6.9,6.9,30,0.00,CLR,OVC,0.00,0.0,WeatherDisplay:10.37,2013-01-18 22:14:00,
2013-01-18 14:19:00,58.5,27.1,30.03,WNW,292,5.8,5.8,30,0.00,CLR,OVC,0.00,0.0,WeatherDisplay:10.37,2013-01-18 22:19:00,
2013-01-18 14:24:00,58.6,26.4,30.03,NW,315,6.9,6.9,29,0.00,CLR,OVC,0.00,0.0,WeatherDisplay:10.37,2013-01-18 22:24:00,
2013-01-18 14:29:00,59.0,25.0,30.03,NW,315,5.8,5.8,27,0.00,CLR,OVC,0.00,0.0,WeatherDisplay:10.37,2013-01-18 22:29:00,
2013-01-18 14:34:00,58.5,24.6,30.02,NNE,22,3.5,3.5,27,0.00,CLR,OVC,0.00,0.0,WeatherDisplay:10.37,2013-01-18 22:34:00,
2013-01-18 14:39:00,58.5,26.3,30.02,NW,315,4.6,4.6,29,0.00,CLR,OVC,0.00,0.0,WeatherDisplay:10.37,2013-01-18 22:39:00,
2013-01-18 14:44:00,58.5,26.3,30.02,NW,315,4.6,4.6,29,0.00,CLR,OVC,0.00,0.0,WeatherDisplay:10.37,2013-01-18 22:44:00,
2013-01-18 14:49:00,58.8,27.4,30.02,NNE,22,4.6,4.6,30,0.00,CLR,OVC,0.00,0.0,WeatherDisplay:10.37,2013-01-18 22:49:00,
2013-01-18 14:54:00,58.8,27.4,30.03,NW,315,3.5,3.5,30,0.00,CLR,OVC,0.00,0.0,WeatherDisplay:10.37,2013-01-18 22:54:00,
2013-01-18 14:59:00,58.8,27.4,30.03,NE,45,4.6,4.6,30,0.00,CLR,OVC,0.00,0.0,WeatherDisplay:10.37,2013-01-18 22:59:00,
2013-01-18 15:04:00,58.6,27.3,30.03,WNW,292,3.5,3.5,30,0.00,CLR,OVC,0.00,0.0,WeatherDisplay:10.37,2013-01-18 23:04:00,
2013-01-18 15:09:00,58.5,26.3,30.03,North,0,4.6,4.6,29,0.00,CLR,OVC,0.00,0.0,WeatherDisplay:10.37,2013-01-18 23:09:00,
2013-01-18 15:14:00,58.6,24.7,30.02,NNE,22,4.6,4.6,27,0.00,CLR,OVC,0.00,0.0,WeatherDisplay:10.37,2013-01-18 23:14:00,
2013-01-18 15:19:00,58.8,23.0,30.02,NNW,338,5.8,5.8,25,0.00,CLR,OVC,0.00,0.0,WeatherDisplay:10.37,2013-01-18 23:19:00,
2013-01-18 15:24:00,58.6,22.9,30.02,NW,315,2.3,3.0,25,0.00,CLR,OVC,0.00,0.0,WeatherDisplay:10.37,2013-01-18 23:24:00,
2013-01-18 15:29:00,58.5,22.7,30.02,NW,315,6.9,6.9,25,0.00,CLR,OVC,0.00,0.0,WeatherDisplay:10.37,2013-01-18 23:29:00,
2013-01-18 15:34:00,58.3,22.6,30.02,NNE,22,5.1,5.1,25,0.00,CLR,OVC,0.00,0.0,WeatherDisplay:10.37,2013-01-18 23:34:00,
2013-01-18 15:39:00,58.3,22.6,30.02,NW,315,5.8,5.8,25,0.00,CLR,OVC,0.00,0.0,WeatherDisplay:10.37,2013-01-18 23:39:00,
2013-01-18 15:44:00,58.1,24.3,30.02,NW,315,1.2,2.4,27,0.00,CLR,OVC,0.00,0.0,WeatherDisplay:10.37,2013-01-18 23:44:00,
2013-01-18 15:49:00,58.3,25.3,30.02,NE,45,4.6,4.6,28,0.00,CLR,OVC,0.00,0.0,WeatherDisplay:10.37,2013-01-18 23:49:00,
2013-01-18 15:54:00,58.1,24.3,30.01,NNE,22,4.8,4.8,27,0.00,CLR,OVC,0.00,0.0,WeatherDisplay:10.37,2013-01-18 23:54:00,
2013-01-18 15:59:00,58.1,21.4,30.01,NNE,22,5.8,5.8,24,0.00,CLR,OVC,0.00,0.0,WeatherDisplay:10.37,2013-01-18 23:59:00,
2013-01-18 16:04:00,57.9,21.3,30.01,NNE,22,4.6,4.6,24,0.00,CLR,OVC,0.00,0.0,WeatherDisplay:10.37,2013-01-19 00:04:00,
2013-01-18 16:09:00,57.7,21.1,30.01,ENE,68,4.7,4.7,24,0.00,CLR,OVC,0.00,0.0,WeatherDisplay:10.37,2013-01-19 00:09:00,
2013-01-18 16:14:00,57.6,21.0,30.00,NW,315,2.5,2.8,24,0.00,CLR,OVC,0.00,0.0,WeatherDisplay:10.37,2013-01-19 00:14:00,
2013-01-18 16:19:00,57.6,21.0,30.00,NNE,22,2.3,2.5,24,0.00,CLR,OVC,0.00,0.0,WeatherDisplay:10.37,2013-01-19 00:19:00,
2013-01-18 16:24:00,57.4,21.8,30.00,WNW,292,4.6,4.6,25,0.00,CLR,OVC,0.00,0.0,WeatherDisplay:10.37,2013-01-19 00:24:00,
2013-01-18 16:29:00,57.2,21.6,30.00,NW,315,3.5,3.5,25,0.00,CLR,OVC,0.00,0.0,WeatherDisplay:10.37,2013-01-19 00:29:00,
2013-01-18 16:34:00,57.2,21.6,30.01,NNE,22,3.5,3.5,25,0.00,CLR,OVC,0.00,0.0,WeatherDisplay:10.37,2013-01-19 00:34:00,
2013-01-18 16:39:00,57.0,23.3,30.01,NNE,22,3.5,3.5,27,0.00,CLR,OVC,0.00,0.0,WeatherDisplay:10.37,2013-01-19 00:39:00,
2013-01-18 16:44:00,56.8,24.0,30.01,NNE,22,2.4,2.4,28,0.00,CLR,OVC,0.00,0.0,WeatherDisplay:10.37,2013-01-19 00:44:00,
2013-01-18 16:49:00,56.7,24.7,30.01,NW,315,2.3,2.3,29,0.00,CLR,OVC,0.00,0.0,WeatherDisplay:10.37,2013-01-19 00:49:00,
2013-01-18 16:54:00,56.5,25.4,30.02,NNE,22,1.2,1.2,30,0.00,CLR,OVC,0.00,0.0,WeatherDisplay:10.37,2013-01-19 00:54:00,
2013-01-18 16:59:00,56.3,25.2,30.02,NW,315,1.2,1.2,30,0.00,CLR,OVC,0.00,0.0,WeatherDisplay:10.37,2013-01-19 00:59:00,
2013-01-18 17:04:00,55.9,24.9,30.02,NNE,22,1.2,1.2,30,0.00,CLR,OVC,0.00,0.0,WeatherDisplay:10.37,2013-01-19 01:04:00,
2013-01-18 17:09:00,55.8,24.8,30.02,NNE,22,0.0,0.1,30,0.00,CLR,OVC,0.00,0.0,WeatherDisplay:10.37,2013-01-19 01:09:00,
2013-01-18 17:14:00,54.9,26.3,30.01,NNE,22,0.0,0.0,33,0.00,CLR,OVC,0.00,0.0,WeatherDisplay:10.37,2013-01-19 01:14:00,
2013-01-18 17:19:00,54.1,26.4,30.01,East,90,0.0,0.0,34,0.00,CLR,OVC,0.00,0.0,WeatherDisplay:10.37,2013-01-19 01:19:00,
2013-01-18 17:24:00,53.4,27.1,30.01,ESE,112,0.0,0.0,36,0.00,CLR,OVC,0.00,0.0,WeatherDisplay:10.37,2013-01-19 01:24:00,
2013-01-18 17:29:00,53.1,27.4,30.01,NNW,338,0.0,0.0,37,0.00,CLR,OVC,0.00,0.0,WeatherDisplay:10.37,2013-01-19 01:29:00,
2013-01-18 17:34:00,52.7,27.1,30.01,NNE,22,0.0,0.0,37,0.00,CLR,OVC,0.00,0.0,WeatherDisplay:10.37,2013-01-19 01:34:00,
2013-01-18 17:39:00,52.3,27.5,30.01,NW,315,0.0,0.0,38,0.00,CLR,OVC,0.00,0.0,WeatherDisplay:10.37,2013-01-19 01:39:00,
2013-01-18 17:44:00,52.2,27.9,30.01,NW,315,0.0,0.0,39,0.00,CLR,OVC,0.00,0.0,WeatherDisplay:10.37,2013-01-19 01:44:00,
2013-01-18 17:49:00,51.8,28.2,30.01,NNW,338,0.0,0.0,40,0.00,CLR,OVC,0.00,0.0,WeatherDisplay:10.37,2013-01-19 01:49:00,
2013-01-18 17:54:00,51.6,28.7,30.01,NNE,22,0.0,0.0,41,0.00,CLR,OVC,0.00,0.0,WeatherDisplay:10.37,2013-01-19 01:54:00,
2013-01-18 17:59:00,51.4,28.5,30.01,North,0,0.0,0.0,41,0.00,CLR,OVC,0.00,0.0,WeatherDisplay:10.37,2013-01-19 01:59:00,
2013-01-18 18:04:00,51.3,28.9,30.01,NNE,22,0.0,0.0,42,0.00,CLR,OVC,0.00,0.0,WeatherDisplay:10.37,2013-01-19 02:04:00,
2013-01-18 18:09:00,50.9,28.6,30.01,NE,45,0.0,0.0,42,0.00,CLR,OVC,0.00,0.0,WeatherDisplay:10.37,2013-01-19 02:09:00,
2013-01-18 18:14:00,50.4,28.7,30.02,NNE,22,0.0,0.0,43,0.00,CLR,OVC,0.00,0.0,WeatherDisplay:10.37,2013-01-19 02:14:00,
2013-01-18 18:19:00,50.2,28.5,30.02,NW,315,0.0,0.0,43,0.00,CLR,OVC,0.00,0.0,WeatherDisplay:10.37,2013-01-19 02:19:00,
2013-01-18 18:24:00,50.2,28.5,30.02,NW,315,0.0,0.0,43,0.00,CLR,OVC,0.00,0.0,WeatherDisplay:10.37,2013-01-19 02:24:00,
2013-01-18 18:29:00,50.0,28.9,30.02,NW,315,0.0,0.0,44,0.00,CLR,OVC,0.00,0.0,WeatherDisplay:10.37,2013-01-19 02:29:00,
2013-01-18 18:34:00,49.6,28.6,30.02,NW,315,0.0,0.0,44,0.00,CLR,OVC,0.00,0.0,WeatherDisplay:10.37,2013-01-19 02:34:00,
2013-01-18 18:39:00,49.1,28.7,30.02,NW,315,0.0,0.0,45,0.00,CLR,OVC,0.00,0.0,WeatherDisplay:10.37,2013-01-19 02:39:00,
2013-01-18 18:44:00,48.7,28.9,30.02,NW,315,0.0,0.0,46,0.00,CLR,OVC,0.00,0.0,WeatherDisplay:10.37,2013-01-19 02:44:00,
2013-01-18 18:49:00,48.7,28.9,30.02,NW,315,0.0,0.0,46,0.00,CLR,OVC,0.00,0.0,WeatherDisplay:10.37,2013-01-19 02:49:00,
2013-01-18 18:54:00,48.4,29.1,30.01,NW,315,0.0,0.0,47,0.00,CLR,OVC,0.00,0.0,WeatherDisplay:10.37,2013-01-19 02:54:00,
2013-01-18 18:59:00,48.0,28.7,30.01,SE,135,0.0,0.0,47,0.00,CLR,OVC,0.00,0.0,WeatherDisplay:10.37,2013-01-19 02:59:00,
2013-01-18 19:04:00,47.7,28.9,30.01,SE,135,0.0,0.0,48,0.00,CLR,OVC,0.00,0.0,WeatherDisplay:10.37,2013-01-19 03:04:00,
2013-01-18 19:09:00,47.5,29.3,30.01,ESE,112,0.0,0.0,49,0.00,CLR,OVC,0.00,0.0,WeatherDisplay:10.37,2013-01-19 03:09:00,
2013-01-18 19:14:00,47.3,29.1,30.02,NE,45,0.0,0.0,49,0.00,CLR,OVC,0.00,0.0,WeatherDisplay:10.37,2013-01-19 03:14:00,
2013-01-18 19:19:00,47.3,29.1,30.02,NE,45,0.0,0.0,49,0.00,CLR,OVC,0.00,0.0,WeatherDisplay:10.37,2013-01-19 03:19:00,
2013-01-18 19:24:00,46.8,29.1,30.02,ENE,68,0.0,0.0,50,0.00,CLR,OVC,0.00,0.0,WeatherDisplay:10.37,2013-01-19 03:24:00,
2013-01-18 19:29:00,46.8,29.1,30.02,NNW,338,0.0,0.0,50,0.00,CLR,OVC,0.00,0.0,WeatherDisplay:10.37,2013-01-19 03:29:00,
2013-01-18 19:34:00,46.8,29.1,30.03,East,90,0.0,0.0,50,0.00,CLR,OVC,0.00,0.0,WeatherDisplay:10.37,2013-01-19 03:34:00,
2013-01-18 19:39:00,46.4,28.8,30.03,ESE,112,0.0,0.0,50,0.00,CLR,OVC,0.00,0.0,WeatherDisplay:10.37,2013-01-19 03:39:00,
2013-01-18 19:44:00,46.0,28.9,30.03,SE,135,0.0,0.0,51,0.00,CLR,OVC,0.00,0.0,WeatherDisplay:10.37,2013-01-19 03:44:00,
2013-01-18 19:49:00,45.7,29.0,30.01,SE,135,0.0,0.0,52,0.00,CLR,OVC,0.00,0.0,WeatherDisplay:10.37,2013-01-19 03:49:00,
2013-01-18 19:54:00,45.5,29.3,30.01,SE,135,0.0,0.0,53,0.00,CLR,OVC,0.00,0.0,WeatherDisplay:10.37,2013-01-19 03:54:00,
2013-01-18 19:59:00,45.5,29.3,30.01,SSE,158,0.0,0.0,53,0.00,CLR,OVC,0.00,0.0,WeatherDisplay:10.37,2013-01-19 03:59:00,
2013-01-18 20:04:00,45.7,30.0,30.01,ENE,68,0.0,0.0,54,0.00,CLR,OVC,0.00,0.0,WeatherDisplay:10.37,2013-01-19 04:04:00,
2013-01-18 20:09:00,45.9,29.7,30.01,NE,45,0.0,0.0,53,0.00,CLR,OVC,0.00,0.0,WeatherDisplay:10.37,2013-01-19 04:09:00,
2013-01-18 20:14:00,45.9,29.2,30.01,ENE,68,0.0,0.0,52,0.00,CLR,OVC,0.00,0.0,WeatherDisplay:10.37,2013-01-19 04:14:00,
2013-01-18 20:19:00,45.9,29.2,30.01,ENE,68,0.0,0.0,52,0.00,CLR,OVC,0.00,0.0,WeatherDisplay:10.37,2013-01-19 04:19:00,
2013-01-18 20:24:00,44.8,28.7,30.01,SE,135,0.0,0.0,53,0.00,CLR,OVC,0.00,0.0,WeatherDisplay:10.37,2013-01-19 04:24:00,
2013-01-18 20:29:00,44.6,29.0,30.01,SE,135,0.0,0.0,54,0.00,CLR,OVC,0.00,0.0,WeatherDisplay:10.37,2013-01-19 04:29:00,
2013-01-18 20:34:00,44.4,29.2,30.03,SW,225,0.0,0.0,55,0.00,CLR,OVC,0.00,0.0,WeatherDisplay:10.37,2013-01-19 04:34:00,
2013-01-18 20:39:00,44.4,29.2,30.03,West,270,0.0,0.0,55,0.00,CLR,OVC,0.00,0.0,WeatherDisplay:10.37,2013-01-19 04:39:00,
2013-01-18 20:44:00,45.0,29.8,30.03,North,0,0.0,0.0,55,0.00,CLR,OVC,0.00,0.0,WeatherDisplay:10.37,2013-01-19 04:44:00,
2013-01-18 20:49:00,45.0,29.3,30.03,NNE,22,0.0,0.0,54,0.00,CLR,OVC,0.00,0.0,WeatherDisplay:10.37,2013-01-19 04:49:00,
2013-01-18 20:54:00,44.8,29.1,30.03,North,0,0.0,0.0,54,0.00,CLR,OVC,0.00,0.0,WeatherDisplay:10.37,2013-01-19 04:54:00,
2013-01-18 20:59:00,44.8,29.1,30.03,NNE,22,0.0,0.0,54,0.00,CLR,OVC,0.00,0.0,WeatherDisplay:10.37,2013-01-19 04:59:00,
2013-01-18 21:01:00,44.6,29.0,30.03,NNE,22,0.0,0.0,54,0.00,CLR,OVC,0.00,0.0,WeatherDisplay:10.37,2013-01-19 05:01:00,
2013-01-18 21:02:00,44.6,29.0,30.03,NNE,22,0.0,0.0,54,0.00,CLR,OVC,0.00,0.0,WeatherDisplay:10.37,2013-01-19 05:02:00,
2013-01-18 21:03:00,44.2,28.6,30.03,ESE,112,0.0,0.0,54,0.00,CLR,OVC,0.00,0.0,WeatherDisplay:10.37,2013-01-19 05:03:00,
2013-01-18 21:08:00,43.9,28.7,30.03,ESE,112,0.0,0.0,55,0.00,CLR,OVC,0.00,0.0,WeatherDisplay:10.37,2013-01-19 05:08:00,
2013-01-18 21:13:00,43.7,28.6,30.03,ESE,112,0.0,0.0,55,0.00,CLR,OVC,0.00,0.0,WeatherDisplay:10.37,2013-01-19 05:13:00,
2013-01-18 21:18:00,43.5,28.8,30.03,ESE,112,0.0,0.0,56,0.00,CLR,OVC,0.00,0.0,WeatherDisplay:10.37,2013-01-19 05:18:00,
2013-01-18 21:23:00,43.7,29.0,30.03,ENE,68,0.0,0.0,56,0.00,CLR,OVC,0.00,0.0,WeatherDisplay:10.37,2013-01-19 05:23:00,
2013-01-18 21:28:00,43.5,28.8,30.03,NW,315,0.0,0.0,56,0.00,CLR,OVC,0.00,0.0,WeatherDisplay:10.37,2013-01-19 05:28:00,
2013-01-18 21:33:00,43.5,28.8,30.03,West,270,0.0,0.0,56,0.00,CLR,OVC,0.00,0.0,WeatherDisplay:10.37,2013-01-19 05:33:00,
2013-01-18 21:38:00,43.2,28.9,30.03,West,270,0.0,0.0,57,0.00,CLR,OVC,0.00,0.0,WeatherDisplay:10.37,2013-01-19 05:38:00,
2013-01-18 21:43:00,43.2,28.9,30.03,NW,315,0.0,0.0,57,0.00,CLR,OVC,0.00,0.0,WeatherDisplay:10.37,2013-01-19 05:43:00,
2013-01-18 21:48:00,43.2,28.9,30.03,SSE,158,0.0,0.0,57,0.00,CLR,OVC,0.00,0.0,WeatherDisplay:10.37,2013-01-19 05:48:00,
2013-01-18 21:53:00,42.8,29.0,30.04,ESE,112,0.0,0.0,58,0.00,CLR,OVC,0.00,0.0,WeatherDisplay:10.37,2013-01-19 05:53:00,
2013-01-18 21:58:00,43.3,29.5,30.04,ENE,68,0.0,0.0,58,0.00,CLR,OVC,0.00,0.0,WeatherDisplay:10.37,2013-01-19 05:58:00,
2013-01-18 22:03:00,43.0,28.8,30.04,ESE,112,0.0,0.0,57,0.00,CLR,OVC,0.00,0.0,WeatherDisplay:10.37,2013-01-19 06:03:00,
2013-01-18 22:08:00,42.8,28.6,30.04,ESE,112,0.0,0.0,57,0.00,CLR,OVC,0.00,0.0,WeatherDisplay:10.37,2013-01-19 06:08:00,
2013-01-18 22:13:00,42.6,28.9,30.04,NE,45,0.0,0.0,58,0.00,CLR,OVC,0.00,0.0,WeatherDisplay:10.37,2013-01-19 06:13:00,
2013-01-18 22:18:00,42.6,28.9,30.04,NNE,22,0.0,0.0,58,0.00,CLR,OVC,0.00,0.0,WeatherDisplay:10.37,2013-01-19 06:18:00,
2013-01-18 22:23:00,42.6,28.9,30.04,NNE,22,0.0,0.0,58,0.00,CLR,OVC,0.00,0.0,WeatherDisplay:10.37,2013-01-19 06:23:00,
2013-01-18 22:28:00,42.4,28.7,30.04,NNE,22,0.0,0.0,58,0.00,CLR,OVC,0.00,0.0,WeatherDisplay:10.37,2013-01-19 06:28:00,
2013-01-18 22:33:00,42.3,28.5,30.04,NE,45,0.0,0.0,58,0.00,CLR,OVC,0.00,0.0,WeatherDisplay:10.37,2013-01-19 06:33:00,
2013-01-18 22:38:00,42.3,28.5,30.04,ENE,68,0.0,0.0,58,0.00,CLR,OVC,0.00,0.0,WeatherDisplay:10.37,2013-01-19 06:38:00,
2013-01-18 22:43:00,41.9,28.2,30.04,ESE,112,0.0,0.0,58,0.00,CLR,OVC,0.00,0.0,WeatherDisplay:10.37,2013-01-19 06:43:00,
2013-01-18 22:48:00,41.5,27.8,30.04,NE,45,0.0,0.0,58,0.00,CLR,OVC,0.00,0.0,WeatherDisplay:10.37,2013-01-19 06:48:00,
2013-01-18 22:53:00,41.7,28.0,30.03,ESE,112,0.0,0.0,58,0.00,CLR,OVC,0.00,0.0,WeatherDisplay:10.37,2013-01-19 06:53:00,
2013-01-18 22:59:00,41.2,27.9,30.03,ESE,112,0.0,0.0,59,0.00,CLR,OVC,0.00,0.0,WeatherDisplay:10.37,2013-01-19 06:59:00,
2013-01-18 23:04:00,41.2,27.9,30.03,ESE,112,0.0,0.0,59,0.00,CLR,OVC,0.00,0.0,WeatherDisplay:10.37,2013-01-19 07:04:00,
2013-01-18 23:09:00,41.4,28.1,30.03,ESE,112,0.0,0.0,59,0.00,CLR,OVC,0.00,0.0,WeatherDisplay:10.37,2013-01-19 07:09:00,
2013-01-18 23:14:00,41.2,27.9,30.04,NE,45,0.0,0.0,59,0.00,CLR,OVC,0.00,0.0,WeatherDisplay:10.37,2013-01-19 07:14:00,
2013-01-18 23:19:00,41.4,28.1,30.04,NE,45,0.0,0.0,59,0.00,CLR,OVC,0.00,0.0,WeatherDisplay:10.37,2013-01-19 07:19:00,
2013-01-18 23:24:00,41.4,28.1,30.04,East,90,0.0,0.0,59,0.00,CLR,OVC,0.00,0.0,WeatherDisplay:10.37,2013-01-19 07:24:00,
2013-01-18 23:29:00,40.8,27.6,30.04,ESE,112,0.0,0.0,59,0.00,CLR,OVC,0.00,0.0,WeatherDisplay:10.37,2013-01-19 07:29:00,
2013-01-18 23:34:00,40.5,27.2,30.05,ESE,112,0.0,0.0,59,0.00,CLR,OVC,0.00,0.0,WeatherDisplay:10.37,2013-01-19 07:34:00,
2013-01-18 23:39:00,41.0,27.8,30.05,East,90,0.0,0.0,59,0.00,CLR,OVC,0.00,0.0,WeatherDisplay:10.37,2013-01-19 07:39:00,
2013-01-18 23:44:00,40.6,27.4,30.05,SE,135,0.0,0.0,59,0.00,CLR,OVC,0.00,0.0,WeatherDisplay:10.37,2013-01-19 07:44:00,
2013-01-18 23:49:00,40.5,27.2,30.05,SE,135,0.0,0.0,59,0.00,CLR,OVC,0.00,0.0,WeatherDisplay:10.37,2013-01-19 07:49:00,
2013-01-18 23:54:00,40.5,27.2,30.03,SE,135,0.0,0.0,59,0.00,CLR,OVC,0.00,0.0,WeatherDisplay:10.37,2013-01-19 07:54:00,
2013-01-18 23:59:00,39.9,27.1,30.03,SE,135,0.0,0.0,60,0.00,CLR,OVC,0.00,0.0,WeatherDisplay:10.37,2013-01-19 07:59:00,